STARLINK-31889, 59847

Orbit data source: Space-Track

STARLINK-31889, 59847 is a payload satellite owned by SpaceX/Seattle (US) in LEO that was launched on Thu, 23 May 2024 UTC via an FALCON 9 launch vehicle from the Air Force Eastern Test Range (AFETR). Payload-class satellites include a variety of spacecraft equipped with specific instruments for various scientific and technological missions. These include communications satellites like Starlink; space stations such as the ISS; scientific satellites like the Hubble; Earth observation satellites from companies like Planet Labs, Umbra, and HawkEye 360; GPS; miniature CubeSats for education and research; and military/defense satellites.

Loading next visibility...
Identifier
59847, 2024-097N
Orbit
LEO
Country
Flag of USUS
Related business
Manufacturer
SpaceX/Seattle
Mission
Operational Commercial Communications
Bus & Motor
STARLINK V2M, Unknown motor
Mass
730 kg wet, ~700 kg dry
Launch date (UTC)
2024-05-23 (2 years ago)
Launch vehicle
FALCON 9
Launch site
Air Force Eastern Test Range (AFETR)
Object type
Payload
Rocket body
Debris
Shape & HBR
Box + 2 Pan, 17.7 m
Radar Cross Section
33.884 m², Large (>1 m²)

Expand to show TLE details & history
Last TLE update: 2 days ago

TLE from 2 days ago
0 STARLINK-31889
1 59847U 24097N   26171.09627873  .00000240  00000-0  18239-4 0  9997
2 59847  43.0010  56.4442 0000987 265.4666  94.6073 15.27565958117570
Epoch: 2026-06-20T02:18Z
TLE epoch observation values (Epoch: 2026-06-20T02:18:38.482Z)
Latitude
-0°
Longitude
113.46805°
Altitude
482.921 km
Speed
7.626 km/s
True Right ascension
03h 45m 46s
True Declination
0° 00' 00"
Sunlit
Object was in daylight at epoch
Visualization orbit readout
Latitude
Unknown
Longitude
Unknown
Altitude
Unknown
Speed
Unknown
Apparent Right ascension
Unknown
Apparent Declination
Unknown
Sunlit
N/A
Visualization observer readout
Local Sidereal Time
21:28:10
Azimuth
Unknown
Elevation
Unknown
Doppler factor
Unknown
Orbital elements
Apogee altitude
485.714 km
Perigee altitude
484.359 km
Semi-major axis
6,863.173 km
Eccentricity
0.0001
Inclination
43.001°
RAAN
56.4442°
Arg. of periapsis
265.4666°
True anomaly
94.61857°
Mean anomaly
94.6073°
Eccentric anomaly
94.61294°
Mean motion
3.8173 °/min
Orbital period
94.31 mins
BSTAR
0.000018239
Loading maneuver chart data...
Computing Atmospheric mass density...
Loading historical data...
Loading historical data...
Loading historical data...
Loading historical data...
Loading historical data...
Loading historical data...
Loading historical data...

Documentation

Showing up to 5 results
|